Regional Weather Roundup
Issued by NWS

Home | Current Version | Previous Version | Text Only | Print | Product List | Glossary Off
Versions: 1 2 3 4 5 6 7 8 9 10 11 12 13 14 15 16 17 18 19 20 21 22 23 24 25 26 27 28 29 30 31 32 33 34 35 36 37 38 39 40 41 42 43 44 45 46 47 48 49 50

112
ASUS43 KDMX 200406
RWRIA

WEATHER ROUNDUP FOR IOWA
NATIONAL WEATHER SERVICE DES MOINES IA
1100 PM CDT WED JUL 19 2017

NOTE: "FAIR" INDICATES FEW OR NO CLOUDS BELOW 12,000 FEET WITH NO
SIGNIFICANT WEATHER AND/OR OBSTRUCTIONS TO VISIBILITY.

* - THESE STATIONS ARE NOT NWS STATIONS...THUS NOT UNDER NWS
QUALITY CONTROL.  THEY ALSO DO NOT REPORT WEATHER SUCH
AS PRECIPITATION OR FOG.

IAZ001>003-012>014-020>022-031>034-043>046-200500-
   NORTHWEST IOWA

CITY           SKY/WX    TMP DP  RH WIND       PRES   REMARKS
CARROLL *      CLOUDY    82  79  89 SW18G26   29.90F HX  93
CHEROKEE *     CLOUDY    87  75  67 SW10G18   29.85R HX  96
DENISON *      CLOUDY    82  79  89 S9G18     29.95F HX  93
ORANGE CITY *  CLOUDY    84  73  70 W7        29.89R HX  91
SHELDON *      CLOUDY    77  75  94 CALM      29.87R
SIOUX CITY     LGT RAIN  87  77  72 S23G33    29.84F HX  99
SPENCER        CLOUDY    80  75  84 SE5       29.89R HX  85
STORM LAKE *   CLOUDY    84  66  54 SW18G25   29.85R HX  86
$$

IAZ055>058-069>071-079>083-090>094-200500-
   SOUTHWEST IOWA

CITY           SKY/WX    TMP DP  RH WIND       PRES   REMARKS
ATLANTIC *     CLOUDY    82  79  89 S7        29.97R HX  93
AUDUBON *      CLOUDY    81  75  83 S7        29.97F HX  86
CLARINDA *       N/A     82  77  83 S9        29.99S HX  91
COUNCIL BLFS * CLOUDY    82  81  94 E5        29.97R HX  95
CRESTON *      CLOUDY    81  79  94 S10       30.01S HX  89
HARLAN  *      CLOUDY    79  79 100 NE3       30.01S HX  83
LAMONI         PTCLDY    80  78  94 S9        30.01S HX  88
RED OAK *      CLOUDY    82  75  78 S9        29.96R HX  89
SHENANDOAH *   CLOUDY    82  75  78 S12       29.96R HX  89
$$

IAZ047>049-059>061-072>074-084-200500-
   CENTRAL IOWA

CITY           SKY/WX    TMP DP  RH WIND       PRES   REMARKS
AMES           MOCLDY    82  76  81 S14       29.92F HX  89
ANKENY *       PTCLDY    81  75  83 S8        29.95F HX  86
BOONE *        CLOUDY    82  75  78 S12G21    29.92F HX  89
CHARITON *     CLOUDY    81  75  83 S8        30.00S HX  86
DES MOINES     CLOUDY    82  74  76 S10       29.95F HX  88
GRINNELL*      PTCLDY    80  72  75 S10       29.98F HX  84
KNOXVILLE *    CLOUDY    81  73  78 S10       29.97F HX  85
MARSHALLTOWN   CLOUDY    82  72  71 S10       29.94F HX  87
NEWTON *       CLOUDY    79  73  83 S12       29.97F HX  82
PELLA *        CLOUDY    80  72  76 S7        29.99F HX  84
PERRY *          N/A     80  77  90 S8        29.94F HX  88
$$

IAZ004>006-015-016-023>025-035-036-200500-
   NORTH CENTRAL IOWA

CITY           SKY/WX    TMP DP  RH WIND       PRES   REMARKS
ALGONA *       CLOUDY    79  75  89 S8        29.89F HX  82
CLARION *      CLOUDY    82  77  83 S15       29.90F HX  91
ESTHERVILLE    CLOUDY    72  71  97 SE3       29.88F
FORT DODGE *   CLOUDY    82  75  78 S14G21    29.89F HX  89
MASON CITY     CLOUDY    73  70  90 S12       29.93F
FOREST CITY *    N/A     73  72  94 S9        29.91F
WEBSTER CITY * CLOUDY    82  75  78 S12G18    29.88F HX  89
IOWA FALLS *     N/A     78  73  86 S8        29.94F HX  80
$$

IAZ007>011-017>019-026>030-037>042-050>054-066-200500-
   NORTHEAST IOWA

CITY           SKY/WX    TMP DP  RH WIND       PRES   REMARKS
CEDAR RAPIDS   CLOUDY    73  71  93 SE7       29.99F
CHARLES CITY * CLOUDY    72  72 100 S10       29.93F
CLINTON *      CLOUDY    73  70  90 SE9       30.04F
DECORAH *      CLOUDY    68  66  94 SE8       29.94S
DUBUQUE        CLOUDY    71  66  84 SE12      30.03S
MONTICELLO *   MOCLDY    73  70  88 SE7       30.00R
OELWEIN *      CLOUDY    73  72  94 S13       29.96S
WATERLOO       CLOUDY    76  67  73 S13       29.93F
$$

IAZ064-065-067-068-078-200500-
   EAST CENTRAL IOWA

CITY           SKY/WX    TMP DP  RH WIND       PRES   REMARKS
DAVENPORT      PTCLDY    75  67  76 S12       30.03F
IOWA CITY      PTCLDY    76  70  82 SE9       30.01F
MT. PLEASANT * PTCLDY    78  74  86 S6        30.02F HX  81
MUSCATINE *    CLEAR     79  72  78 E9        30.02F HX  82
QUAD CITIES    PTCLDY    76  67  73 SE8       30.04F
$$

IAZ062-063-075>077-085>089-095>099-200500-
   SOUTHEAST IOWA

CITY           SKY/WX    TMP DP  RH WIND       PRES   REMARKS
BURLINGTON     PTCLDY    80  77  90 S3        30.04R HX  87
FAIRFIELD *    PTCLDY    82  73  74 S9        30.01F HX  88
FORT MADISON * CLOUDY    81  77  89 S5        30.05S HX  88
KEOKUK *       CLEAR     81  75  83 SW3       30.04S HX  86
OSKALOOSA *      N/A     78  73  84 S6        30.01S
CENTERVILLE *    N/A     77  75  94 S5        30.03F
OTTUMWA        CLOUDY    83  75  77 S7        30.01  HX  90
WASHINGTON *   CLEAR     79  75  89 SE6       30.02F HX  82
$$

ABBREVIATIONS USED IN REMARKS
   TC - TEMPERATURES IN CELSIUS
  WCI - WIND CHILL INDEX
   HX - HEAT INDEX
  VSB - VISIBILITY
$$





USA.gov is the U.S. government's official web portal to all federal, state and local government web resources and services.